146P/Shoemaker-LINEAR (2024)

Japanese version
Home page
Updated on September 16, 2024

---------------------------------------------------------------------

* Profile

* Pictures

* Orbital Elements

Epoch 2024 Mar. 31.0 TT = JDT 2460400.5
T 2024 Aug. 5.43677 TT                                  Rudenko
q   1.4195918            (2000.0)            P               Q
n   0.12199920     Peri.  317.07359     +0.93950532     -0.13415073
a   4.0262251      Node    53.37546     +0.30273087     +0.75568840
e   0.6474137      Incl.   23.12306     -0.16026158     +0.64104495
P   8.08
>From 156 observations 2016 Apr. 19-2024 June 19, mean residual 0".6.
     Nongravitational parameters A1 = -0.56, A2 = -0.0608.

* Finding Charts

* Magnitudes Graph

        m1 =  9.5 + 5 log d + 30   log r(t + 15)  [   ,75]  (             - 2024 Oct. 19)
        m1 = 13.5 + 5 log d + 15.0 log r          [75,   ]  (2024 Oct. 19 -             )

---------------------------------------------------------------------

The orbital elements are published on M.P.E.C. 2024-M41.
The charts are made with StellaNavigator Ver.11 (AstroArts).
The magnitudes graphs are made with Comet for Windows.

---------------------------------------------------------------------

Copyright(C) Seiichi Yoshida (comet@aerith.net). All rights reserved.